When you browse on this site, cookies collect data to enhance your experience and personalize the content and advertising you see.
Visit our Privacy Policy to learn more. By continuing to use the site, you agree to this use of cookies and data.

Previsão horária em Abdul-Gazy

Hoje, 26 Setembro, Sábado

Tempo Temperatura Precipitação Vento Pressão Humidade
00:00 +19°C° 0 mm 5 m/s 756 mmHg 59%
01:00 +19°C° 0 mm 5 m/s 756 mmHg 58%
02:00 +19°C° 0 mm 5 m/s 756 mmHg 56%
03:00 +19°C° 0 mm 5 m/s 756 mmHg 55%
04:00 +17°C° 0 mm 5 m/s 756 mmHg 55%
05:00 +17°C° 0 mm 5 m/s 756 mmHg 55%
06:00 +17°C° 0 mm 5 m/s 756 mmHg 55%
07:00 +20°C° 0 mm 6 m/s 756 mmHg 52%
08:00 +22°C° 0 mm 8 m/s 756 mmHg 49%
09:00 +24°C° 0 mm 9 m/s 756 mmHg 47%
10:00 +26°C° 0 mm 10 m/s 756 mmHg 43%
11:00 +27°C° 0 mm 10 m/s 756 mmHg 39%
12:00 +28°C° 0 mm 11 m/s 756 mmHg 35%
13:00 +28°C° 0 mm 11 m/s 756 mmHg 36%
14:00 +27°C° 0 mm 11 m/s 756 mmHg 37%
15:00 +26°C° 0 mm 11 m/s 756 mmHg 38%
16:00 +24°C° 0 mm 10 m/s 756 mmHg 42%
17:00 +22°C° 0 mm 9 m/s 757 mmHg 47%
18:00 +21°C° 0 mm 8 m/s 757 mmHg 52%
19:00 +20°C° 0 mm 7 m/s 757 mmHg 54%
20:00 +20°C° 0 mm 7 m/s 757 mmHg 56%
21:00 +19°C° 0 mm 6 m/s 758 mmHg 58%
22:00 +19°C° 0 mm 6 m/s 758 mmHg 59%
23:00 +19°C° 0 mm 6 m/s 757 mmHg 59%

Amanhã, 27 Setembro, Domingo

Tempo Temperatura Precipitação Vento Pressão Humidade
00:00 +19°C° 0 mm 5 m/s 757 mmHg 60%
01:00 +19°C° 0 mm 6 m/s 757 mmHg 59%
02:00 +19°C° 0 mm 6 m/s 757 mmHg 58%
03:00 +19°C° 0 mm 6 m/s 758 mmHg 57%
04:00 +18°C° 0 mm 7 m/s 758 mmHg 57%
05:00 +18°C° 0 mm 7 m/s 758 mmHg 57%
06:00 +18°C° 0 mm 7 m/s 758 mmHg 57%
07:00 +21°C° 0 mm 8 m/s 759 mmHg 53%
08:00 +22°C° 0 mm 9 m/s 759 mmHg 50%
09:00 +23°C° 0 mm 10 m/s 759 mmHg 46%
10:00 +24°C° 0 mm 10 m/s 759 mmHg 44%
11:00 +26°C° 0 mm 10 m/s 760 mmHg 42%
12:00 +27°C° 0 mm 10 m/s 760 mmHg 40%
13:00 +26°C° 0 mm 10 m/s 760 mmHg 40%
14:00 +26°C° 0 mm 10 m/s 760 mmHg 39%
15:00 +26°C° 0 mm 10 m/s 760 mmHg 39%
16:00 +23°C° 0 mm 10 m/s 761 mmHg 44%
17:00 +22°C° 0 mm 9 m/s 761 mmHg 48%
18:00 +20°C° 0 mm 8 m/s 762 mmHg 53%
19:00 +20°C° 0 mm 8 m/s 762 mmHg 54%
20:00 +18°C° 0 mm 7 m/s 762 mmHg 55%
21:00 +17°C° 0 mm 7 m/s 763 mmHg 56%
22:00 +17°C° 0 mm 6 m/s 763 mmHg 56%
23:00 +17°C° 0 mm 6 m/s 763 mmHg 55%

Depois de amanhã, 28 Setembro, Segunda-feira

Tempo Temperatura Precipitação Vento Pressão Humidade
00:00 +16°C° 0 mm 5 m/s 763 mmHg 55%
01:00 +16°C° 0 mm 5 m/s 763 mmHg 56%
02:00 +16°C° 0 mm 5 m/s 763 mmHg 56%
03:00 +16°C° 0 mm 5 m/s 763 mmHg 56%
04:00 +16°C° 0 mm 5 m/s 763 mmHg 58%
05:00 +16°C° 0 mm 5 m/s 763 mmHg 59%
06:00 +16°C° 0 mm 5 m/s 763 mmHg 60%
07:00 +19°C° 0 mm 6 m/s 764 mmHg 54%
08:00 +20°C° 0 mm 8 m/s 764 mmHg 48%
09:00 +22°C° 0 mm 9 m/s 764 mmHg 43%
10:00 +23°C° 0 mm 9 m/s 764 mmHg 41%
11:00 +24°C° 0 mm 9 m/s 763 mmHg 39%
12:00 +26°C° 0 mm 10 m/s 763 mmHg 37%
13:00 +26°C° 0 mm 10 m/s 763 mmHg 38%
14:00 +26°C° 0 mm 10 m/s 763 mmHg 38%
15:00 +26°C° 0 mm 10 m/s 763 mmHg 39%
16:00 +23°C° 0 mm 9 m/s 764 mmHg 43%
17:00 +22°C° 0 mm 8 m/s 764 mmHg 47%
18:00 +20°C° 0 mm 7 m/s 764 mmHg 51%
19:00 +18°C° 0 mm 7 m/s 764 mmHg 54%
20:00 +17°C° 0 mm 7 m/s 764 mmHg 57%
21:00 +17°C° 0 mm 6 m/s 764 mmHg 60%
22:00 +16°C° 0 mm 6 m/s 764 mmHg 61%
23:00 +16°C° 0 mm 6 m/s 764 mmHg 63%

29 Setembro, Terça-feira

Tempo Temperatura Precipitação Vento Pressão Humidade
00:00 +16°C° 0 mm 6 m/s 763 mmHg 64%
01:00 +15°C° 0 mm 6 m/s 763 mmHg 64%
02:00 +15°C° 0 mm 6 m/s 763 mmHg 65%
03:00 +15°C° 0 mm 5 m/s 763 mmHg 65%
04:00 +15°C° 0 mm 5 m/s 763 mmHg 65%
05:00 +15°C° 0 mm 5 m/s 763 mmHg 65%
06:00 +15°C° 0 mm 5 m/s 763 mmHg 65%
07:00 +17°C° 0 mm 6 m/s 763 mmHg 57%
08:00 +20°C° 0 mm 8 m/s 763 mmHg 50%
09:00 +22°C° 0 mm 9 m/s 763 mmHg 42%
10:00 +23°C° 0 mm 9 m/s 762 mmHg 40%
11:00 +26°C° 0 mm 10 m/s 762 mmHg 37%
12:00 +27°C° 0 mm 10 m/s 762 mmHg 35%
13:00 +27°C° 0 mm 11 m/s 761 mmHg 34%
14:00 +26°C° 0 mm 11 m/s 761 mmHg 33%
15:00 +26°C° 0 mm 11 m/s 760 mmHg 32%
16:00 +23°C° 0 mm 10 m/s 760 mmHg 38%
17:00 +22°C° 0 mm 9 m/s 760 mmHg 43%
18:00 +19°C° 0 mm 9 m/s 760 mmHg 48%
19:00 +18°C° 0 mm 9 m/s 760 mmHg 52%
20:00 +18°C° 0 mm 9 m/s 760 mmHg 55%
21:00 +17°C° 0 mm 9 m/s 760 mmHg 59%
22:00 +17°C° 0 mm 8 m/s 760 mmHg 59%
23:00 +17°C° 0 mm 8 m/s 759 mmHg 59%

30 Setembro, Quarta-feira

Tempo Temperatura Precipitação Vento Pressão Humidade
00:00 +17°C° 0 mm 8 m/s 759 mmHg 59%
01:00 +17°C° 0 mm 8 m/s 758 mmHg 58%
02:00 +16°C° 0 mm 8 m/s 758 mmHg 57%
03:00 +16°C° 0 mm 7 m/s 758 mmHg 55%
04:00 +17°C° 0 mm 8 m/s 757 mmHg 54%
05:00 +17°C° 0 mm 8 m/s 757 mmHg 54%
06:00 +17°C° 0 mm 8 m/s 757 mmHg 53%
07:00 +18°C° 0 mm 9 m/s 757 mmHg 49%
08:00 +21°C° 0 mm 10 m/s 757 mmHg 45%
09:00 +22°C° 0 mm 11 m/s 757 mmHg 41%
10:00 +23°C° 0 mm 11 m/s 757 mmHg 38%
11:00 +24°C° 0 mm 11 m/s 757 mmHg 35%
12:00 +26°C° 0 mm 11 m/s 757 mmHg 32%
13:00 +26°C° 0 mm 12 m/s 757 mmHg 33%
14:00 +24°C° 0 mm 12 m/s 757 mmHg 33%
15:00 +24°C° 0 mm 12 m/s 757 mmHg 33%
16:00 +23°C° 0 mm 11 m/s 757 mmHg 38%
17:00 +21°C° 0 mm 10 m/s 757 mmHg 43%
18:00 +19°C° 0 mm 9 m/s 757 mmHg 47%
19:00 +18°C° 0 mm 9 m/s 757 mmHg 50%
20:00 +18°C° 0 mm 9 m/s 758 mmHg 52%
21:00 +17°C° 0 mm 8 m/s 758 mmHg 54%
22:00 +17°C° 0 mm 8 m/s 758 mmHg 55%
23:00 +17°C° 0 mm 7 m/s 758 mmHg 55%

1 Outubro, Quinta-feira

Tempo Temperatura Precipitação Vento Pressão Humidade
00:00 +16°C° 0 mm 7 m/s 758 mmHg 55%
01:00 +16°C° 0 mm 7 m/s 757 mmHg 55%
02:00 +16°C° 0 mm 7 m/s 757 mmHg 56%
03:00 +16°C° 0 mm 6 m/s 757 mmHg 56%
04:00 +16°C° 0 mm 7 m/s 757 mmHg 57%
05:00 +16°C° 0 mm 7 m/s 758 mmHg 57%
06:00 +16°C° 0 mm 7 m/s 758 mmHg 58%
07:00 +18°C° 0 mm 9 m/s 758 mmHg 52%
08:00 +21°C° 0 mm 10 m/s 758 mmHg 47%
09:00 +22°C° 0 mm 12 m/s 758 mmHg 41%
10:00 +23°C° 0 mm 12 m/s 758 mmHg 37%
11:00 +24°C° 0 mm 12 m/s 758 mmHg 33%
12:00 +26°C° 0 mm 12 m/s 758 mmHg 29%
13:00 +26°C° 0 mm 12 m/s 758 mmHg 31%
14:00 +24°C° 0 mm 12 m/s 758 mmHg 32%
15:00 +24°C° 0 mm 12 m/s 758 mmHg 34%
16:00 +22°C° 0 mm 11 m/s 758 mmHg 39%
17:00 +19°C° 0 mm 10 m/s 758 mmHg 44%
18:00 +18°C° 0 mm 8 m/s 759 mmHg 50%
19:00 +17°C° 0 mm 8 m/s 759 mmHg 52%
20:00 +17°C° 0 mm 7 m/s 759 mmHg 54%
21:00 +16°C° 0 mm 7 m/s 760 mmHg 56%
22:00 +16°C° 0 mm 7 m/s 759 mmHg 56%
23:00 +16°C° 0 mm 7 m/s 759 mmHg 56%
Mostrar mais